Time,TemperatureF,DewpointF,PressureIn,WindDirection,WindDirectionDegrees,WindSpeedMPH,WindSpeedGustMPH,Humidity,HourlyPrecipIn,Conditions,Clouds,dailyrainin,SolarRadiationWatts/m^2,SoftwareType,DateUTC
2013-07-12 00:05:00,62.5,58.9,30.08,NE,44,1.0,1.0,88,0.00,,,0.00,0,Wunderground v.1.15,2013-07-12 05:05:00,
2013-07-12 00:10:00,63.6,59.0,30.08,NE,44,1.0,1.0,85,0.00,,,0.00,0,Wunderground v.1.15,2013-07-12 05:10:00,
2013-07-12 00:15:00,64.5,58.9,30.08,ESE,123,2.0,3.0,82,0.00,,,0.00,0,Wunderground v.1.15,2013-07-12 05:15:00,
2013-07-12 00:21:00,65.0,58.7,30.08,SE,124,2.0,2.0,80,0.00,,,0.00,0,Wunderground v.1.15,2013-07-12 05:21:00,
2013-07-12 00:26:00,65.1,58.4,30.08,ESE,123,2.0,2.0,79,0.00,,,0.00,0,Wunderground v.1.15,2013-07-12 05:26:00,
2013-07-12 00:31:00,65.2,58.5,30.08,ESE,123,2.0,2.0,79,0.00,,,0.00,0,Wunderground v.1.15,2013-07-12 05:31:00,
2013-07-12 00:37:00,64.9,58.2,30.08,ESE,123,2.0,2.0,79,0.00,,,0.00,0,Wunderground v.1.15,2013-07-12 05:37:00,
2013-07-12 00:42:00,64.5,58.2,30.08,ESE,123,1.0,2.0,80,0.00,,,0.00,0,Wunderground v.1.15,2013-07-12 05:42:00,
2013-07-12 00:47:00,64.2,57.9,30.08,ESE,123,0.0,2.0,80,0.00,,,0.00,0,Wunderground v.1.15,2013-07-12 05:47:00,
2013-07-12 00:52:00,64.1,58.1,30.08,ESE,123,0.0,1.0,81,0.00,,,0.00,0,Wunderground v.1.15,2013-07-12 05:52:00,
2013-07-12 00:58:00,63.7,58.1,30.09,ESE,123,0.0,1.0,82,0.00,,,0.00,0,Wunderground v.1.15,2013-07-12 05:58:00,
2013-07-12 01:04:00,63.3,57.7,30.08,ESE,123,0.0,0.0,82,0.00,,,0.00,0,Wunderground v.1.15,2013-07-12 06:04:00,
2013-07-12 01:09:00,63.0,57.8,30.08,ESE,123,0.0,0.0,83,0.00,,,0.00,0,Wunderground v.1.15,2013-07-12 06:09:00,
2013-07-12 01:14:00,62.8,57.6,30.08,ESE,123,0.0,0.0,83,0.00,,,0.00,0,Wunderground v.1.15,2013-07-12 06:14:00,
2013-07-12 01:20:00,62.6,57.4,30.08,ESE,123,0.0,0.0,83,0.00,,,0.00,0,Wunderground v.1.15,2013-07-12 06:20:00,
2013-07-12 01:25:00,62.4,57.5,30.08,ESE,123,0.0,0.0,84,0.00,,,0.00,0,Wunderground v.1.15,2013-07-12 06:25:00,
2013-07-12 01:30:00,62.0,57.4,30.08,ESE,123,0.0,0.0,85,0.00,,,0.00,0,Wunderground v.1.15,2013-07-12 06:30:00,
2013-07-12 01:36:00,61.6,57.0,30.09,ESE,123,0.0,0.0,85,0.00,,,0.00,0,Wunderground v.1.15,2013-07-12 06:36:00,
2013-07-12 01:41:00,61.2,57.0,30.09,ESE,123,0.0,0.0,86,0.00,,,0.00,0,Wunderground v.1.15,2013-07-12 06:41:00,
2013-07-12 01:46:00,60.8,56.6,30.09,ESE,123,0.0,0.0,86,0.00,,,0.00,0,Wunderground v.1.15,2013-07-12 06:46:00,
2013-07-12 01:52:00,60.4,56.5,30.09,ESE,123,0.0,0.0,87,0.00,,,0.00,0,Wunderground v.1.15,2013-07-12 06:52:00,
2013-07-12 01:57:00,60.2,56.3,30.09,ESE,123,0.0,0.0,87,0.00,,,0.00,0,Wunderground v.1.15,2013-07-12 06:57:00,
2013-07-12 02:02:00,59.9,56.3,30.09,ESE,123,0.0,0.0,88,0.00,,,0.00,0,Wunderground v.1.15,2013-07-12 07:02:00,
2013-07-12 02:07:00,59.7,56.1,30.10,ESE,123,0.0,0.0,88,0.00,,,0.00,0,Wunderground v.1.15,2013-07-12 07:07:00,
2013-07-12 02:12:00,59.6,56.4,30.09,ESE,123,0.0,0.0,89,0.00,,,0.00,0,Wunderground v.1.15,2013-07-12 07:12:00,
2013-07-12 02:17:00,59.5,56.3,30.09,ESE,123,0.0,0.0,89,0.00,,,0.00,0,Wunderground v.1.15,2013-07-12 07:17:00,
2013-07-12 02:22:00,59.3,56.1,30.09,ESE,123,0.0,0.0,89,0.00,,,0.00,0,Wunderground v.1.15,2013-07-12 07:22:00,
2013-07-12 02:27:00,59.1,55.9,30.09,ESE,123,0.0,0.0,89,0.00,,,0.00,0,Wunderground v.1.15,2013-07-12 07:27:00,
2013-07-12 02:32:00,59.0,55.8,30.09,ESE,123,0.0,0.0,89,0.00,,,0.00,0,Wunderground v.1.15,2013-07-12 07:32:00,
2013-07-12 02:37:00,58.9,56.0,30.09,ESE,123,0.0,0.0,90,0.00,,,0.00,0,Wunderground v.1.15,2013-07-12 07:37:00,
2013-07-12 02:42:00,58.7,55.8,30.09,ESE,123,0.0,0.0,90,0.00,,,0.00,0,Wunderground v.1.15,2013-07-12 07:42:00,
2013-07-12 02:47:00,58.6,55.7,30.08,ESE,123,0.0,0.0,90,0.00,,,0.00,0,Wunderground v.1.15,2013-07-12 07:47:00,
2013-07-12 02:52:00,58.5,55.6,30.08,ESE,123,0.0,0.0,90,0.00,,,0.00,0,Wunderground v.1.15,2013-07-12 07:52:00,
2013-07-12 02:57:00,58.3,55.4,30.08,ESE,123,0.0,0.0,90,0.00,,,0.00,0,Wunderground v.1.15,2013-07-12 07:57:00,
2013-07-12 03:02:00,58.1,55.2,30.08,ESE,123,0.0,0.0,90,0.00,,,0.00,0,Wunderground v.1.15,2013-07-12 08:02:00,
2013-07-12 03:07:00,58.0,55.4,30.08,ESE,123,0.0,0.0,91,0.00,,,0.00,0,Wunderground v.1.15,2013-07-12 08:07:00,
2013-07-12 03:12:00,57.8,55.2,30.08,ESE,123,0.0,0.0,91,0.00,,,0.00,0,Wunderground v.1.15,2013-07-12 08:12:00,
2013-07-12 03:17:00,57.7,55.1,30.08,ESE,123,0.0,0.0,91,0.00,,,0.00,0,Wunderground v.1.15,2013-07-12 08:17:00,
2013-07-12 03:22:00,57.6,55.0,30.08,ESE,123,0.0,0.0,91,0.00,,,0.00,0,Wunderground v.1.15,2013-07-12 08:22:00,
2013-07-12 03:27:00,57.5,54.9,30.08,ESE,123,0.0,0.0,91,0.00,,,0.00,0,Wunderground v.1.15,2013-07-12 08:27:00,
2013-07-12 03:32:00,57.4,54.8,30.08,ESE,123,0.0,0.0,91,0.00,,,0.00,0,Wunderground v.1.15,2013-07-12 08:32:00,
2013-07-12 03:37:00,57.3,54.7,30.08,ESE,123,0.0,0.0,91,0.00,,,0.00,0,Wunderground v.1.15,2013-07-12 08:37:00,
2013-07-12 03:42:00,57.2,54.9,30.08,ESE,123,0.0,0.0,92,0.00,,,0.00,0,Wunderground v.1.15,2013-07-12 08:42:00,
2013-07-12 03:47:00,57.2,54.9,30.08,ESE,123,0.0,0.0,92,0.00,,,0.00,0,Wunderground v.1.15,2013-07-12 08:47:00,
2013-07-12 03:52:00,57.2,54.9,30.08,ESE,123,0.0,0.0,92,0.00,,,0.00,0,Wunderground v.1.15,2013-07-12 08:52:00,
2013-07-12 03:57:00,57.2,54.9,30.09,ESE,123,0.0,0.0,92,0.00,,,0.00,0,Wunderground v.1.15,2013-07-12 08:57:00,
2013-07-12 04:02:00,57.2,54.9,30.09,ESE,123,0.0,0.0,92,0.00,,,0.00,0,Wunderground v.1.15,2013-07-12 09:02:00,
2013-07-12 04:07:00,57.1,54.8,30.09,ESE,123,0.0,0.0,92,0.00,,,0.00,0,Wunderground v.1.15,2013-07-12 09:07:00,
2013-07-12 04:12:00,56.9,54.6,30.09,ESE,123,0.0,0.0,92,0.00,,,0.00,0,Wunderground v.1.15,2013-07-12 09:12:00,
2013-07-12 04:17:00,56.8,54.5,30.09,ESE,123,0.0,0.0,92,0.00,,,0.00,0,Wunderground v.1.15,2013-07-12 09:17:00,
2013-07-12 04:22:00,56.7,54.4,30.10,ESE,123,0.0,0.0,92,0.00,,,0.00,0,Wunderground v.1.15,2013-07-12 09:22:00,
2013-07-12 04:27:00,56.6,54.6,30.10,ESE,123,0.0,0.0,93,0.00,,,0.00,0,Wunderground v.1.15,2013-07-12 09:27:00,
2013-07-12 04:32:00,56.6,54.6,30.10,ESE,123,0.0,0.0,93,0.00,,,0.00,0,Wunderground v.1.15,2013-07-12 09:32:00,
2013-07-12 04:37:00,56.4,54.4,30.10,ESE,123,0.0,0.0,93,0.00,,,0.00,0,Wunderground v.1.15,2013-07-12 09:37:00,
2013-07-12 04:42:00,56.3,54.0,30.10,ESE,123,0.0,0.0,92,0.00,,,0.00,0,Wunderground v.1.15,2013-07-12 09:42:00,
2013-07-12 04:47:00,56.2,53.9,30.09,ESE,123,0.0,0.0,92,0.00,,,0.00,0,Wunderground v.1.15,2013-07-12 09:47:00,
2013-07-12 04:52:00,55.9,53.6,30.09,ESE,123,0.0,0.0,92,0.00,,,0.00,0,Wunderground v.1.15,2013-07-12 09:52:00,
2013-07-12 04:57:00,55.6,53.3,30.08,ESE,123,0.0,0.0,92,0.00,,,0.00,0,Wunderground v.1.15,2013-07-12 09:57:00,
2013-07-12 05:02:00,55.4,53.1,30.08,ESE,123,0.0,0.0,92,0.00,,,0.00,0,Wunderground v.1.15,2013-07-12 10:02:00,
2013-07-12 05:07:00,55.5,53.5,30.10,ESE,123,0.0,0.0,93,0.00,,,0.00,0,Wunderground v.1.15,2013-07-12 10:07:00,
2013-07-12 05:12:00,55.5,53.5,30.09,ESE,123,0.0,0.0,93,0.00,,,0.00,0,Wunderground v.1.15,2013-07-12 10:12:00,
2013-07-12 05:17:00,55.5,53.5,30.10,ESE,123,0.0,0.0,93,0.00,,,0.00,0,Wunderground v.1.15,2013-07-12 10:17:00,
2013-07-12 05:22:00,55.5,53.5,30.10,ESE,123,0.0,0.0,93,0.00,,,0.00,0,Wunderground v.1.15,2013-07-12 10:22:00,
2013-07-12 05:27:00,55.5,53.5,30.10,SSE,167,0.0,1.0,93,0.00,,,0.00,0,Wunderground v.1.15,2013-07-12 10:27:00,
2013-07-12 05:33:00,55.5,53.8,30.10,SSE,167,0.0,0.0,94,0.00,,,0.00,5,Wunderground v.1.15,2013-07-12 10:33:00,
2013-07-12 05:38:00,55.5,53.8,30.11,SSE,167,0.0,0.0,94,0.00,,,0.00,9,Wunderground v.1.15,2013-07-12 10:38:00,
2013-07-12 05:43:00,55.5,53.8,30.11,SSE,167,0.0,0.0,94,0.00,,,0.00,12,Wunderground v.1.15,2013-07-12 10:43:00,
2013-07-12 05:48:00,55.7,54.0,30.12,SSE,167,0.0,0.0,94,0.00,,,0.00,18,Wunderground v.1.15,2013-07-12 10:48:00,
2013-07-12 05:53:00,55.8,54.1,30.12,SSE,167,0.0,0.0,94,0.00,,,0.00,23,Wunderground v.1.15,2013-07-12 10:53:00,
2013-07-12 05:58:00,56.0,54.3,30.12,SSE,167,0.0,0.0,94,0.00,,,0.00,32,Wunderground v.1.15,2013-07-12 10:58:00,
2013-07-12 06:03:00,56.1,54.4,30.12,SSE,167,0.0,0.0,94,0.00,,,0.00,39,Wunderground v.1.15,2013-07-12 11:03:00,
2013-07-12 06:08:00,56.3,54.6,30.13,SSE,167,0.0,0.0,94,0.00,,,0.00,49,Wunderground v.1.15,2013-07-12 11:08:00,
2013-07-12 06:13:00,56.5,54.5,30.12,SSE,167,0.0,0.0,93,0.00,,,0.00,60,Wunderground v.1.15,2013-07-12 11:13:00,
2013-07-12 06:18:00,56.8,55.1,30.12,SSE,167,0.0,0.0,94,0.00,,,0.00,72,Wunderground v.1.15,2013-07-12 11:18:00,
2013-07-12 06:23:00,57.0,55.0,30.12,SSE,167,0.0,0.0,93,0.00,,,0.00,84,Wunderground v.1.15,2013-07-12 11:23:00,
2013-07-12 06:28:00,57.2,55.2,30.12,SSE,167,0.0,0.0,93,0.00,,,0.00,98,Wunderground v.1.15,2013-07-12 11:28:00,
2013-07-12 06:33:00,57.7,55.7,30.12,SSE,167,0.0,0.0,93,0.00,,,0.00,105,Wunderground v.1.15,2013-07-12 11:33:00,
2013-07-12 06:38:00,58.3,56.3,30.12,SSE,167,0.0,0.0,93,0.00,,,0.00,123,Wunderground v.1.15,2013-07-12 11:38:00,
2013-07-12 06:43:00,58.9,56.9,30.13,SSE,167,0.0,0.0,93,0.00,,,0.00,144,Wunderground v.1.15,2013-07-12 11:43:00,
2013-07-12 06:48:00,59.6,57.3,30.12,SSE,167,0.0,0.0,92,0.00,,,0.00,156,Wunderground v.1.15,2013-07-12 11:48:00,
2013-07-12 06:53:00,60.4,58.1,30.13,SSE,167,0.0,0.0,92,0.00,,,0.00,171,Wunderground v.1.15,2013-07-12 11:53:00,
2013-07-12 06:58:00,61.1,58.5,30.12,SSE,167,0.0,0.0,91,0.00,,,0.00,188,Wunderground v.1.15,2013-07-12 11:58:00,
2013-07-12 07:03:00,61.5,58.5,30.12,SSE,167,0.0,0.0,90,0.00,,,0.00,204,Wunderground v.1.15,2013-07-12 12:03:00,
2013-07-12 07:08:00,62.1,59.1,30.13,SSE,167,0.0,0.0,90,0.00,,,0.00,220,Wunderground v.1.15,2013-07-12 12:08:00,
2013-07-12 07:13:00,62.7,59.1,30.13,SSE,167,0.0,0.0,88,0.00,,,0.00,234,Wunderground v.1.15,2013-07-12 12:13:00,
2013-07-12 07:18:00,63.3,59.7,30.13,SSE,167,0.0,0.0,88,0.00,,,0.00,250,Wunderground v.1.15,2013-07-12 12:18:00,
2013-07-12 07:23:00,63.8,59.9,30.13,SSE,167,0.0,0.0,87,0.00,,,0.00,265,Wunderground v.1.15,2013-07-12 12:23:00,
2013-07-12 07:28:00,64.3,59.0,30.14,SSE,167,0.0,0.0,83,0.00,,,0.00,285,Wunderground v.1.15,2013-07-12 12:28:00,
2013-07-12 07:33:00,65.2,59.2,30.14,SSE,167,0.0,0.0,81,0.00,,,0.00,295,Wunderground v.1.15,2013-07-12 12:33:00,
2013-07-12 07:38:00,66.1,59.4,30.14,SSE,167,0.0,0.0,79,0.00,,,0.00,320,Wunderground v.1.15,2013-07-12 12:38:00,
2013-07-12 07:43:00,66.8,59.4,30.14,SSE,167,0.0,0.0,77,0.00,,,0.00,345,Wunderground v.1.15,2013-07-12 12:43:00,
2013-07-12 07:48:00,67.5,60.4,30.14,SSE,167,0.0,0.0,78,0.00,,,0.00,376,Wunderground v.1.15,2013-07-12 12:48:00,
2013-07-12 07:53:00,68.3,60.4,30.14,SSE,167,1.0,1.0,76,0.00,,,0.00,403,Wunderground v.1.15,2013-07-12 12:53:00,
2013-07-12 07:58:00,68.4,59.0,30.14,SSE,168,3.0,3.0,72,0.00,,,0.00,427,Wunderground v.1.15,2013-07-12 12:58:00,
2013-07-12 08:03:00,68.4,57.8,30.14,SSE,166,3.0,5.0,69,0.00,,,0.00,441,Wunderground v.1.15,2013-07-12 13:03:00,
2013-07-12 08:08:00,68.4,57.4,30.14,SSE,168,3.0,5.0,68,0.00,,,0.00,452,Wunderground v.1.15,2013-07-12 13:08:00,
2013-07-12 08:13:00,68.5,56.7,30.14,SSE,162,5.0,5.0,66,0.00,,,0.00,476,Wunderground v.1.15,2013-07-12 13:13:00,
2013-07-12 08:18:00,68.7,56.5,30.14,SSE,161,0.0,6.0,65,0.00,,,0.00,504,Wunderground v.1.15,2013-07-12 13:18:00,
2013-07-12 08:23:00,69.1,56.8,30.14,SSE,165,2.0,6.0,65,0.00,,,0.00,510,Wunderground v.1.15,2013-07-12 13:23:00,
2013-07-12 08:28:00,69.4,57.1,30.14,SSE,163,2.0,6.0,65,0.00,,,0.00,536,Wunderground v.1.15,2013-07-12 13:28:00,
2013-07-12 08:33:00,69.8,57.1,30.14,South,171,0.0,5.0,64,0.00,,,0.00,571,Wunderground v.1.15,2013-07-12 13:33:00,
2013-07-12 08:38:00,70.2,57.4,30.14,South,184,2.0,5.0,64,0.00,,,0.00,621,Wunderground v.1.15,2013-07-12 13:38:00,
2013-07-12 08:43:00,70.7,57.0,30.14,SE,142,1.0,5.0,62,0.00,,,0.00,555,Wunderground v.1.15,2013-07-12 13:43:00,
2013-07-12 08:48:00,70.9,55.4,30.14,South,172,3.0,6.0,58,0.00,,,0.00,587,Wunderground v.1.15,2013-07-12 13:48:00,
2013-07-12 08:53:00,70.9,56.3,30.14,South,171,3.0,5.0,60,0.00,,,0.00,538,Wunderground v.1.15,2013-07-12 13:53:00,
2013-07-12 08:58:00,71.1,56.5,30.14,SSE,161,4.0,6.0,60,0.00,,,0.00,737,Wunderground v.1.15,2013-07-12 13:58:00,
2013-07-12 09:03:00,71.6,55.6,30.14,SSE,159,4.0,5.0,57,0.00,,,0.00,788,Wunderground v.1.15,2013-07-12 14:03:00,
2013-07-12 09:08:00,71.7,54.7,30.13,South,170,4.0,7.0,55,0.00,,,0.00,489,Wunderground v.1.15,2013-07-12 14:08:00,
2013-07-12 09:13:00,71.8,56.2,30.13,SSE,166,4.0,7.0,58,0.00,,,0.00,561,Wunderground v.1.15,2013-07-12 14:13:00,
2013-07-12 09:18:00,71.9,54.9,30.13,SSE,158,4.0,7.0,55,0.00,,,0.00,570,Wunderground v.1.15,2013-07-12 14:18:00,
2013-07-12 09:23:00,71.8,55.3,30.13,SE,142,6.0,8.0,56,0.00,,,0.00,464,Wunderground v.1.15,2013-07-12 14:23:00,
2013-07-12 09:28:00,71.9,56.3,30.13,SSE,155,1.0,8.0,58,0.00,,,0.00,777,Wunderground v.1.15,2013-07-12 14:28:00,
2013-07-12 09:33:00,72.4,55.8,30.13,SSE,168,3.0,4.0,56,0.00,,,0.00,346,Wunderground v.1.15,2013-07-12 14:33:00,
2013-07-12 09:38:00,72.4,56.8,30.13,South,174,2.0,4.0,58,0.00,,,0.00,496,Wunderground v.1.15,2013-07-12 14:38:00,
2013-07-12 09:43:00,72.5,57.8,30.13,South,169,0.0,4.0,60,0.00,,,0.00,308,Wunderground v.1.15,2013-07-12 14:43:00,
2013-07-12 09:48:00,72.3,56.2,30.13,South,170,2.0,5.0,57,0.00,,,0.00,232,Wunderground v.1.15,2013-07-12 14:48:00,
2013-07-12 09:53:00,71.8,57.2,30.13,South,170,3.0,4.0,60,0.00,,,0.00,234,Wunderground v.1.15,2013-07-12 14:53:00,
2013-07-12 09:58:00,71.4,56.8,30.13,SSE,160,2.0,4.0,60,0.00,,,0.00,211,Wunderground v.1.15,2013-07-12 14:58:00,
2013-07-12 10:03:00,71.0,57.3,30.13,SSE,160,1.0,3.0,62,0.00,,,0.00,207,Wunderground v.1.15,2013-07-12 15:03:00,
2013-07-12 10:08:00,70.9,57.2,30.13,SSE,160,1.0,3.0,62,0.00,,,0.00,425,Wunderground v.1.15,2013-07-12 15:08:00,
2013-07-12 10:13:00,71.2,58.8,30.14,SSE,160,0.0,1.0,65,0.00,,,0.00,717,Wunderground v.1.15,2013-07-12 15:13:00,
2013-07-12 10:18:00,71.6,57.9,30.13,SSE,160,1.0,3.0,62,0.00,,,0.00,330,Wunderground v.1.15,2013-07-12 15:18:00,
2013-07-12 10:23:00,72.2,58.0,30.13,SSE,160,2.0,3.0,61,0.00,,,0.00,821,Wunderground v.1.15,2013-07-12 15:23:00,
2013-07-12 10:28:00,72.9,58.7,30.13,SSE,160,1.0,4.0,61,0.00,,,0.00,824,Wunderground v.1.15,2013-07-12 15:28:00,
2013-07-12 10:33:00,73.7,58.0,30.13,SSE,161,3.0,4.0,58,0.00,,,0.00,828,Wunderground v.1.15,2013-07-12 15:33:00,
2013-07-12 10:38:00,74.1,57.9,30.13,SSE,161,0.0,5.0,57,0.00,,,0.00,835,Wunderground v.1.15,2013-07-12 15:38:00,
2013-07-12 10:43:00,74.6,58.4,30.13,SSE,161,1.0,3.0,57,0.00,,,0.00,844,Wunderground v.1.15,2013-07-12 15:43:00,
2013-07-12 10:48:00,74.9,60.1,30.13,SSE,157,0.0,5.0,60,0.00,,,0.00,853,Wunderground v.1.15,2013-07-12 15:48:00,
2013-07-12 10:53:00,75.4,58.6,30.13,SSE,156,4.0,4.0,56,0.00,,,0.00,861,Wunderground v.1.15,2013-07-12 15:53:00,
2013-07-12 10:58:00,75.7,59.4,30.13,SSE,164,2.0,6.0,57,0.00,,,0.00,868,Wunderground v.1.15,2013-07-12 15:58:00,
2013-07-12 11:03:00,75.7,60.4,30.13,SSE,157,1.0,6.0,59,0.00,,,0.00,875,Wunderground v.1.15,2013-07-12 16:03:00,
2013-07-12 11:08:00,75.6,59.8,30.13,South,177,1.0,6.0,58,0.00,,,0.00,886,Wunderground v.1.15,2013-07-12 16:08:00,
2013-07-12 11:13:00,75.7,60.8,30.12,SSE,165,3.0,6.0,60,0.00,,,0.00,893,Wunderground v.1.15,2013-07-12 16:13:00,
2013-07-12 11:18:00,75.7,59.4,30.12,SSE,153,5.0,6.0,57,0.00,,,0.00,900,Wunderground v.1.15,2013-07-12 16:18:00,
2013-07-12 11:23:00,75.8,60.9,30.11,SSE,158,3.0,6.0,60,0.00,,,0.00,909,Wunderground v.1.15,2013-07-12 16:23:00,
2013-07-12 11:24:00,75.8,60.9,30.11,SSE,158,3.0,6.0,60,0.00,,,0.00,909,Wunderground v.1.15,2013-07-12 16:24:00,
2013-07-12 11:29:00,75.8,61.4,30.12,South,181,0.0,6.0,61,0.00,,,0.00,916,Wunderground v.1.15,2013-07-12 16:29:00,
2013-07-12 11:34:00,76.3,59.4,30.12,WSW,250,0.0,4.0,56,0.00,,,0.00,919,Wunderground v.1.15,2013-07-12 16:34:00,
2013-07-12 11:39:00,77.0,61.6,30.12,SSE,158,4.0,5.0,59,0.00,,,0.00,933,Wunderground v.1.15,2013-07-12 16:39:00,
2013-07-12 11:44:00,77.2,59.8,30.11,WSW,258,3.0,4.0,55,0.00,,,0.00,932,Wunderground v.1.15,2013-07-12 16:44:00,
2013-07-12 11:49:00,77.4,60.5,30.11,SSE,153,4.0,6.0,56,0.00,,,0.00,939,Wunderground v.1.15,2013-07-12 16:49:00,
2013-07-12 11:54:00,77.3,61.9,30.11,South,173,0.0,5.0,59,0.00,,,0.00,946,Wunderground v.1.15,2013-07-12 16:54:00,
2013-07-12 11:59:00,77.5,59.0,30.11,West,276,2.0,7.0,53,0.00,,,0.00,935,Wunderground v.1.15,2013-07-12 16:59:00,
2013-07-12 12:04:00,77.4,60.5,30.11,South,173,0.0,6.0,56,0.00,,,0.00,951,Wunderground v.1.15,2013-07-12 17:04:00,
2013-07-12 12:10:00,77.7,58.7,30.11,SSE,152,5.0,6.0,52,0.00,,,0.00,954,Wunderground v.1.15,2013-07-12 17:10:00,
2013-07-12 12:15:00,77.6,60.2,30.11,SSE,161,0.0,6.0,55,0.00,,,0.00,958,Wunderground v.1.15,2013-07-12 17:15:00,
2013-07-12 12:20:00,77.9,60.4,30.11,WSW,237,1.0,6.0,55,0.00,,,0.00,962,Wunderground v.1.15,2013-07-12 17:20:00,
2013-07-12 12:25:00,78.4,59.3,30.11,SSE,161,3.0,4.0,52,0.00,,,0.00,962,Wunderground v.1.15,2013-07-12 17:25:00,
2013-07-12 12:31:00,78.5,59.9,30.11,SSE,168,4.0,4.0,53,0.00,,,0.00,965,Wunderground v.1.15,2013-07-12 17:31:00,
2013-07-12 12:36:00,78.4,59.9,30.11,SSE,154,7.0,7.0,53,0.00,,,0.00,963,Wunderground v.1.15,2013-07-12 17:36:00,
2013-07-12 12:41:00,78.2,60.2,30.11,SW,216,0.0,6.0,54,0.00,,,0.00,969,Wunderground v.1.15,2013-07-12 17:41:00,
2013-07-12 12:47:00,78.3,60.8,30.11,South,178,7.0,7.0,55,0.00,,,0.00,969,Wunderground v.1.15,2013-07-12 17:47:00,
2013-07-12 12:52:00,78.3,59.2,30.10,SSE,149,0.0,5.0,52,0.00,,,0.00,969,Wunderground v.1.15,2013-07-12 17:52:00,
2013-07-12 12:57:00,78.4,59.3,30.11,SSE,165,7.0,10.0,52,0.00,,,0.00,969,Wunderground v.1.15,2013-07-12 17:57:00,
2013-07-12 13:02:00,78.5,60.5,30.11,SSE,161,7.0,7.0,54,0.00,,,0.00,972,Wunderground v.1.15,2013-07-12 18:02:00,
2013-07-12 13:07:00,78.5,59.9,30.11,South,173,0.0,7.0,53,0.00,,,0.00,970,Wunderground v.1.15,2013-07-12 18:07:00,
2013-07-12 13:13:00,78.7,61.7,30.11,SE,132,3.0,5.0,56,0.00,,,0.00,969,Wunderground v.1.15,2013-07-12 18:13:00,
2013-07-12 13:18:00,78.6,60.6,30.11,SSE,161,4.0,6.0,54,0.00,,,0.00,965,Wunderground v.1.15,2013-07-12 18:18:00,
2013-07-12 13:23:00,78.4,61.9,30.11,SSE,149,4.0,7.0,57,0.00,,,0.00,967,Wunderground v.1.15,2013-07-12 18:23:00,
2013-07-12 13:28:00,78.3,60.8,30.11,SSE,165,3.0,8.0,55,0.00,,,0.00,960,Wunderground v.1.15,2013-07-12 18:28:00,
2013-07-12 13:33:00,78.6,60.6,30.10,South,170,0.0,5.0,54,0.00,,,0.00,962,Wunderground v.1.15,2013-07-12 18:33:00,
2013-07-12 13:38:00,78.5,61.0,30.10,SSE,148,1.0,8.0,55,0.00,,,0.00,958,Wunderground v.1.15,2013-07-12 18:38:00,
2013-07-12 13:44:00,78.6,59.5,30.10,SW,219,3.0,5.0,52,0.00,,,0.00,956,Wunderground v.1.15,2013-07-12 18:44:00,
2013-07-12 13:49:00,78.9,59.8,30.10,SSE,164,8.0,8.0,52,0.00,,,0.00,954,Wunderground v.1.15,2013-07-12 18:49:00,
2013-07-12 13:54:00,78.8,59.7,30.10,SSE,162,3.0,6.0,52,0.00,,,0.00,953,Wunderground v.1.15,2013-07-12 18:54:00,
2013-07-12 13:59:00,78.9,60.8,30.09,South,180,1.0,6.0,54,0.00,,,0.00,951,Wunderground v.1.15,2013-07-12 18:59:00,
2013-07-12 14:04:00,79.2,58.4,30.09,WSW,252,3.0,8.0,49,0.00,,,0.00,937,Wunderground v.1.15,2013-07-12 19:04:00,
2013-07-12 14:09:00,79.4,59.7,30.10,South,178,0.0,8.0,51,0.00,,,0.00,940,Wunderground v.1.15,2013-07-12 19:09:00,
2013-07-12 14:14:00,79.5,58.7,30.10,SSW,211,1.0,7.0,49,0.00,,,0.00,926,Wunderground v.1.15,2013-07-12 19:14:00,
2013-07-12 14:20:00,79.6,58.2,30.10,SW,236,1.0,2.0,48,0.00,,,0.00,926,Wunderground v.1.15,2013-07-12 19:20:00,
2013-07-12 14:25:00,79.7,59.4,30.10,SSE,167,6.0,7.0,50,0.00,,,0.00,919,Wunderground v.1.15,2013-07-12 19:25:00,
2013-07-12 14:30:00,79.7,57.7,30.10,South,169,0.0,3.0,47,0.00,,,0.00,911,Wunderground v.1.15,2013-07-12 19:30:00,
2013-07-12 14:35:00,80.0,59.1,30.09,South,190,3.0,3.0,49,0.00,,,0.00,902,Wunderground v.1.15,2013-07-12 19:35:00,
2013-07-12 14:40:00,80.2,58.1,30.09,SSE,160,3.0,4.0,47,0.00,,,0.00,893,Wunderground v.1.15,2013-07-12 19:40:00,
2013-07-12 14:45:00,80.1,58.0,30.09,WSW,257,2.0,6.0,47,0.00,,,0.00,888,Wunderground v.1.15,2013-07-12 19:45:00,
2013-07-12 14:51:00,80.2,59.9,30.10,SSW,193,0.0,1.0,50,0.00,,,0.00,874,Wunderground v.1.15,2013-07-12 19:51:00,
2013-07-12 14:56:00,80.5,59.6,30.09,SSE,165,3.0,3.0,49,0.00,,,0.00,868,Wunderground v.1.15,2013-07-12 19:56:00,
2013-07-12 15:01:00,80.3,60.5,30.09,SSE,163,1.0,3.0,51,0.00,,,0.00,860,Wunderground v.1.15,2013-07-12 20:01:00,
2013-07-12 15:06:00,80.2,58.7,30.09,SSE,165,1.0,6.0,48,0.00,,,0.00,854,Wunderground v.1.15,2013-07-12 20:06:00,
2013-07-12 15:11:00,80.2,57.5,30.08,SSE,165,1.0,3.0,46,0.00,,,0.00,846,Wunderground v.1.15,2013-07-12 20:11:00,
2013-07-12 15:16:00,80.4,60.1,30.08,WSW,244,0.0,4.0,50,0.00,,,0.00,833,Wunderground v.1.15,2013-07-12 20:16:00,
2013-07-12 15:22:00,80.7,59.8,30.09,WSW,256,0.0,3.0,49,0.00,,,0.00,823,Wunderground v.1.15,2013-07-12 20:22:00,
2013-07-12 15:27:00,80.9,59.9,30.08,SW,229,1.0,3.0,49,0.00,,,0.00,812,Wunderground v.1.15,2013-07-12 20:27:00,
2013-07-12 15:32:00,80.9,61.1,30.08,South,177,0.0,3.0,51,0.00,,,0.00,800,Wunderground v.1.15,2013-07-12 20:32:00,
2013-07-12 15:37:00,80.7,59.8,30.08,SE,143,4.0,7.0,49,0.00,,,0.00,791,Wunderground v.1.15,2013-07-12 20:37:00,
2013-07-12 15:42:00,80.2,58.1,30.08,South,171,2.0,6.0,47,0.00,,,0.00,780,Wunderground v.1.15,2013-07-12 20:42:00,
2013-07-12 15:47:00,80.0,59.7,30.08,South,170,1.0,6.0,50,0.00,,,0.00,768,Wunderground v.1.15,2013-07-12 20:47:00,
2013-07-12 15:53:00,80.0,60.8,30.08,South,169,2.0,3.0,52,0.00,,,0.00,758,Wunderground v.1.15,2013-07-12 20:53:00,
2013-07-12 15:58:00,80.0,60.2,30.08,SSE,167,2.0,5.0,51,0.00,,,0.00,744,Wunderground v.1.15,2013-07-12 20:58:00,
2013-07-12 16:03:00,80.0,59.1,30.07,SSE,165,4.0,4.0,49,0.00,,,0.00,731,Wunderground v.1.15,2013-07-12 21:03:00,
2013-07-12 16:09:00,80.0,58.5,30.08,SSE,167,4.0,5.0,48,0.00,,,0.00,721,Wunderground v.1.15,2013-07-12 21:09:00,
2013-07-12 16:14:00,79.9,60.2,30.07,SSE,161,0.0,6.0,51,0.00,,,0.00,710,Wunderground v.1.15,2013-07-12 21:14:00,
2013-07-12 16:19:00,80.0,59.7,30.07,SSE,161,3.0,6.0,50,0.00,,,0.00,698,Wunderground v.1.15,2013-07-12 21:19:00,
2013-07-12 16:24:00,80.0,59.1,30.07,SSE,161,1.0,5.0,49,0.00,,,0.00,686,Wunderground v.1.15,2013-07-12 21:24:00,
2013-07-12 16:30:00,80.1,58.6,30.07,SSE,166,3.0,5.0,48,0.00,,,0.00,673,Wunderground v.1.15,2013-07-12 21:30:00,
2013-07-12 16:35:00,80.2,59.9,30.07,SSE,166,2.0,3.0,50,0.00,,,0.00,663,Wunderground v.1.15,2013-07-12 21:35:00,
2013-07-12 16:40:00,80.4,58.3,30.07,SSW,196,0.0,1.0,47,0.00,,,0.00,610,Wunderground v.1.15,2013-07-12 21:40:00,
2013-07-12 16:45:00,80.6,59.7,30.07,SSE,164,4.0,4.0,49,0.00,,,0.00,615,Wunderground v.1.15,2013-07-12 21:45:00,
2013-07-12 16:50:00,80.4,58.3,30.06,SSE,165,0.0,1.0,47,0.00,,,0.00,587,Wunderground v.1.15,2013-07-12 21:50:00,
2013-07-12 16:56:00,80.4,58.9,30.06,SSE,165,0.0,2.0,48,0.00,,,0.00,589,Wunderground v.1.15,2013-07-12 21:56:00,
2013-07-12 17:01:00,80.6,60.8,30.06,SSE,165,0.0,0.0,51,0.00,,,0.00,573,Wunderground v.1.15,2013-07-12 22:01:00,
2013-07-12 17:06:00,80.9,59.9,30.06,SSE,165,0.0,1.0,49,0.00,,,0.00,559,Wunderground v.1.15,2013-07-12 22:06:00,
2013-07-12 17:11:00,81.0,60.0,30.06,South,169,2.0,3.0,49,0.00,,,0.00,547,Wunderground v.1.15,2013-07-12 22:11:00,
2013-07-12 17:17:00,80.8,58.7,30.06,South,171,0.0,4.0,47,0.00,,,0.00,529,Wunderground v.1.15,2013-07-12 22:17:00,
2013-07-12 17:22:00,80.7,59.8,30.06,SSW,194,0.0,1.0,49,0.00,,,0.00,517,Wunderground v.1.15,2013-07-12 22:22:00,
2013-07-12 17:27:00,80.5,59.0,30.05,SSE,165,0.0,5.0,48,0.00,,,0.00,497,Wunderground v.1.15,2013-07-12 22:27:00,
2013-07-12 17:32:00,80.3,60.0,30.05,South,173,0.0,3.0,50,0.00,,,0.00,485,Wunderground v.1.15,2013-07-12 22:32:00,
2013-07-12 17:37:00,80.2,60.4,30.05,South,174,0.0,3.0,51,0.00,,,0.00,471,Wunderground v.1.15,2013-07-12 22:37:00,
2013-07-12 17:42:00,80.2,61.5,30.05,South,175,1.0,3.0,53,0.00,,,0.00,448,Wunderground v.1.15,2013-07-12 22:42:00,
2013-07-12 17:48:00,80.1,61.4,30.05,South,176,4.0,4.0,53,0.00,,,0.00,408,Wunderground v.1.15,2013-07-12 22:48:00,
2013-07-12 17:53:00,79.8,60.1,30.05,South,173,0.0,2.0,51,0.00,,,0.00,392,Wunderground v.1.15,2013-07-12 22:53:00,
2013-07-12 17:58:00,79.7,60.5,30.05,South,177,4.0,4.0,52,0.00,,,0.00,415,Wunderground v.1.15,2013-07-12 22:58:00,
2013-07-12 18:03:00,79.5,59.8,30.05,SSE,155,0.0,5.0,51,0.00,,,0.00,309,Wunderground v.1.15,2013-07-12 23:03:00,
2013-07-12 18:08:00,79.2,59.5,30.05,SSE,155,0.0,5.0,51,0.00,,,0.00,318,Wunderground v.1.15,2013-07-12 23:08:00,
2013-07-12 18:14:00,79.0,58.2,30.05,SSE,161,1.0,6.0,49,0.00,,,0.00,353,Wunderground v.1.15,2013-07-12 23:14:00,
2013-07-12 18:19:00,78.9,59.2,30.05,SSE,156,0.0,6.0,51,0.00,,,0.00,336,Wunderground v.1.15,2013-07-12 23:19:00,
2013-07-12 18:24:00,78.9,58.7,30.05,SSE,154,0.0,4.0,50,0.00,,,0.00,327,Wunderground v.1.15,2013-07-12 23:24:00,
2013-07-12 18:29:00,79.0,60.4,30.05,SSE,153,1.0,4.0,53,0.00,,,0.00,315,Wunderground v.1.15,2013-07-12 23:29:00,
2013-07-12 18:35:00,78.9,59.8,30.05,SSE,154,0.0,2.0,52,0.00,,,0.00,301,Wunderground v.1.15,2013-07-12 23:35:00,
2013-07-12 18:40:00,79.0,58.2,30.05,SSE,154,1.0,2.0,49,0.00,,,0.00,285,Wunderground v.1.15,2013-07-12 23:40:00,
2013-07-12 18:45:00,78.9,59.2,30.05,SSE,160,3.0,5.0,51,0.00,,,0.00,267,Wunderground v.1.15,2013-07-12 23:45:00,
2013-07-12 18:50:00,78.7,58.5,30.05,SSE,160,1.0,3.0,50,0.00,,,0.00,251,Wunderground v.1.15,2013-07-12 23:50:00,
2013-07-12 18:55:00,78.5,59.4,30.05,SSE,160,3.0,3.0,52,0.00,,,0.00,232,Wunderground v.1.15,2013-07-12 23:55:00,
2013-07-12 19:00:00,78.3,59.2,30.05,SSE,160,2.0,3.0,52,0.00,,,0.00,211,Wunderground v.1.15,2013-07-13 00:00:00,
2013-07-12 19:06:00,78.1,59.6,30.05,SSE,160,0.0,3.0,53,0.00,,,0.00,190,Wunderground v.1.15,2013-07-13 00:06:00,
2013-07-12 19:11:00,78.1,60.1,30.05,SSE,160,3.0,3.0,54,0.00,,,0.00,171,Wunderground v.1.15,2013-07-13 00:11:00,
2013-07-12 19:16:00,77.9,59.4,30.05,SSE,160,0.0,3.0,53,0.00,,,0.00,153,Wunderground v.1.15,2013-07-13 00:16:00,
2013-07-12 19:21:00,77.6,59.1,30.05,SSE,160,2.0,3.0,53,0.00,,,0.00,132,Wunderground v.1.15,2013-07-13 00:21:00,
2013-07-12 19:27:00,77.2,58.2,30.05,SSE,157,1.0,5.0,52,0.00,,,0.00,114,Wunderground v.1.15,2013-07-13 00:27:00,
2013-07-12 19:32:00,77.0,59.1,30.05,SSE,157,1.0,4.0,54,0.00,,,0.00,98,Wunderground v.1.15,2013-07-13 00:32:00,
2013-07-12 19:37:00,76.6,59.2,30.05,SSE,157,4.0,4.0,55,0.00,,,0.00,84,Wunderground v.1.15,2013-07-13 00:37:00,
2013-07-12 19:42:00,76.4,59.0,30.05,SSE,157,1.0,3.0,55,0.00,,,0.00,70,Wunderground v.1.15,2013-07-13 00:42:00,
2013-07-12 19:48:00,76.1,58.2,30.05,SSE,157,1.0,4.0,54,0.00,,,0.00,54,Wunderground v.1.15,2013-07-13 00:48:00,
2013-07-12 19:54:00,75.8,59.0,30.05,SSE,157,1.0,2.0,56,0.00,,,0.00,44,Wunderground v.1.15,2013-07-13 00:54:00,
2013-07-12 19:59:00,75.4,58.6,30.05,SSE,157,0.0,2.0,56,0.00,,,0.00,32,Wunderground v.1.15,2013-07-13 00:59:00,
2013-07-12 20:04:00,75.1,58.3,30.05,SSE,157,0.0,3.0,56,0.00,,,0.00,21,Wunderground v.1.15,2013-07-13 01:04:00,
2013-07-12 20:09:00,74.9,58.6,30.05,SSE,157,0.0,3.0,57,0.00,,,0.00,19,Wunderground v.1.15,2013-07-13 01:09:00,
2013-07-12 20:15:00,74.7,58.9,30.05,SSE,157,0.0,3.0,58,0.00,,,0.00,16,Wunderground v.1.15,2013-07-13 01:15:00,
2013-07-12 20:20:00,74.3,59.5,30.05,SSE,157,1.0,1.0,60,0.00,,,0.00,12,Wunderground v.1.15,2013-07-13 01:20:00,
2013-07-12 20:25:00,73.8,59.0,30.05,SSE,157,0.0,2.0,60,0.00,,,0.00,11,Wunderground v.1.15,2013-07-13 01:25:00,
2013-07-12 20:30:00,73.3,57.1,30.05,SSE,157,0.0,0.0,57,0.00,,,0.00,7,Wunderground v.1.15,2013-07-13 01:30:00,
2013-07-12 20:35:00,73.1,57.4,30.05,SSE,157,0.0,1.0,58,0.00,,,0.00,5,Wunderground v.1.15,2013-07-13 01:35:00,
2013-07-12 20:40:00,72.9,56.8,30.05,SSE,157,0.0,0.0,57,0.00,,,0.00,0,Wunderground v.1.15,2013-07-13 01:40:00,
2013-07-12 20:45:00,72.7,57.1,30.05,SSE,157,0.0,0.0,58,0.00,,,0.00,0,Wunderground v.1.15,2013-07-13 01:45:00,
2013-07-12 20:50:00,72.6,57.9,30.06,SSE,157,0.0,0.0,60,0.00,,,0.00,0,Wunderground v.1.15,2013-07-13 01:50:00,
2013-07-12 20:55:00,72.3,59.0,30.06,SSE,157,0.0,0.0,63,0.00,,,0.00,0,Wunderground v.1.15,2013-07-13 01:55:00,
2013-07-12 21:00:00,72.0,60.4,30.06,SSE,157,0.0,0.0,67,0.00,,,0.00,0,Wunderground v.1.15,2013-07-13 02:00:00,
2013-07-12 21:06:00,71.1,60.8,30.06,SSE,157,0.0,4.0,70,0.00,,,0.00,0,Wunderground v.1.15,2013-07-13 02:06:00,
2013-07-12 21:11:00,70.3,60.1,30.06,SSE,157,0.0,0.0,70,0.00,,,0.00,0,Wunderground v.1.15,2013-07-13 02:11:00,
2013-07-12 21:16:00,69.6,60.6,30.06,SSE,157,0.0,0.0,73,0.00,,,0.00,0,Wunderground v.1.15,2013-07-13 02:16:00,
2013-07-12 21:21:00,69.0,60.0,30.06,SSE,157,0.0,0.0,73,0.00,,,0.00,0,Wunderground v.1.15,2013-07-13 02:21:00,
2013-07-12 21:26:00,68.5,59.9,30.05,SSE,157,0.0,0.0,74,0.00,,,0.00,0,Wunderground v.1.15,2013-07-13 02:26:00,
2013-07-12 21:32:00,68.0,60.2,30.05,SSE,157,0.0,0.0,76,0.00,,,0.00,0,Wunderground v.1.15,2013-07-13 02:32:00,
2013-07-12 21:37:00,67.8,57.7,30.05,SSE,157,1.0,3.0,70,0.00,,,0.00,0,Wunderground v.1.15,2013-07-13 02:37:00,
2013-07-12 21:42:00,68.2,59.2,30.06,SSE,157,0.0,1.0,73,0.00,,,0.00,0,Wunderground v.1.15,2013-07-13 02:42:00,
2013-07-12 21:47:00,68.1,58.7,30.05,SSE,157,0.0,1.0,72,0.00,,,0.00,0,Wunderground v.1.15,2013-07-13 02:47:00,
2013-07-12 21:52:00,68.0,59.4,30.05,SSE,157,0.0,0.0,74,0.00,,,0.00,0,Wunderground v.1.15,2013-07-13 02:52:00,
2013-07-12 21:57:00,67.7,59.1,30.05,SSE,157,0.0,0.0,74,0.00,,,0.00,0,Wunderground v.1.15,2013-07-13 02:57:00,
2013-07-12 22:02:00,67.4,59.2,30.05,SSE,157,0.0,0.0,75,0.00,,,0.00,0,Wunderground v.1.15,2013-07-13 03:02:00,
2013-07-12 22:07:00,67.0,58.8,30.05,SSE,157,0.0,0.0,75,0.00,,,0.00,0,Wunderground v.1.15,2013-07-13 03:07:00,
2013-07-12 22:13:00,66.7,58.9,30.05,SSE,157,0.0,0.0,76,0.00,,,0.00,0,Wunderground v.1.15,2013-07-13 03:13:00,
2013-07-12 22:18:00,66.3,58.9,30.05,SSE,157,0.0,0.0,77,0.00,,,0.00,0,Wunderground v.1.15,2013-07-13 03:18:00,
2013-07-12 22:24:00,66.0,58.6,30.05,SSE,157,0.0,0.0,77,0.00,,,0.00,0,Wunderground v.1.15,2013-07-13 03:24:00,
2013-07-12 22:30:00,65.7,58.3,30.05,SSE,157,0.0,0.0,77,0.00,,,0.00,0,Wunderground v.1.15,2013-07-13 03:30:00,
2013-07-12 22:35:00,65.4,58.0,30.05,SSE,157,0.0,0.0,77,0.00,,,0.00,0,Wunderground v.1.15,2013-07-13 03:35:00,
2013-07-12 22:40:00,65.4,58.4,30.05,SSE,157,0.0,0.0,78,0.00,,,0.00,0,Wunderground v.1.15,2013-07-13 03:40:00,
2013-07-12 22:45:00,65.5,58.5,30.05,SSE,157,0.0,1.0,78,0.00,,,0.00,0,Wunderground v.1.15,2013-07-13 03:45:00,
2013-07-12 22:51:00,65.4,58.4,30.05,SSE,157,0.0,0.0,78,0.00,,,0.00,0,Wunderground v.1.15,2013-07-13 03:51:00,
2013-07-12 22:56:00,65.6,58.6,30.05,SSE,157,1.0,3.0,78,0.00,,,0.00,0,Wunderground v.1.15,2013-07-13 03:56:00,
2013-07-12 23:01:00,66.0,58.2,30.05,SSE,157,1.0,1.0,76,0.00,,,0.00,0,Wunderground v.1.15,2013-07-13 04:01:00,
2013-07-12 23:02:00,66.2,58.0,30.05,SSE,157,1.0,1.0,75,0.00,,,0.00,0,Wunderground v.1.15,2013-07-13 04:02:00,
2013-07-12 23:07:00,67.0,58.1,30.05,SSE,157,1.0,4.0,73,0.00,,,0.00,0,Wunderground v.1.15,2013-07-13 04:07:00,
2013-07-12 23:12:00,67.4,57.7,30.05,SSE,157,0.0,1.0,71,0.00,,,0.00,0,Wunderground v.1.15,2013-07-13 04:12:00,
2013-07-12 23:17:00,67.7,58.3,30.05,SSE,157,0.0,2.0,72,0.00,,,0.00,0,Wunderground v.1.15,2013-07-13 04:17:00,
2013-07-12 23:22:00,68.1,57.9,30.05,ESE,123,3.0,8.0,70,0.00,,,0.00,0,Wunderground v.1.15,2013-07-13 04:22:00,
2013-07-12 23:27:00,68.3,57.7,30.05,SE,136,3.0,8.0,69,0.00,,,0.00,0,Wunderground v.1.15,2013-07-13 04:27:00,
2013-07-12 23:32:00,68.5,57.5,30.05,SSE,147,3.0,4.0,68,0.00,,,0.00,0,Wunderground v.1.15,2013-07-13 04:32:00,
2013-07-12 23:37:00,68.4,57.0,30.05,SSE,161,2.0,6.0,67,0.00,,,0.00,0,Wunderground v.1.15,2013-07-13 04:37:00,
2013-07-12 23:42:00,68.3,57.3,30.05,SSE,155,5.0,6.0,68,0.00,,,0.00,0,Wunderground v.1.15,2013-07-13 04:42:00,
2013-07-12 23:47:00,68.2,57.6,30.06,SSE,165,2.0,6.0,69,0.00,,,0.00,0,Wunderground v.1.15,2013-07-13 04:47:00,
2013-07-12 23:52:00,68.0,58.2,30.06,SSE,162,3.0,6.0,71,0.00,,,0.00,0,Wunderground v.1.15,2013-07-13 04:52:00,
2013-07-12 23:57:00,67.8,58.4,30.06,SSE,168,3.0,7.0,72,0.00,,,0.00,0,Wunderground v.1.15,2013-07-13 04:57:00,